CZ-4 DEB, 28068

Orbit data source: Space-Track

CZ-4 DEB, 28068 is space debris in SSO originally from a launch on Thu, 14 Oct 1999 UTC launched from the Taiyaun Space Center, China (TSC). Debris objects in space refer to the collection of defunct objects orbiting the Earth. Examples of debris include non-operational satellites, rocket bodies, and fragments generated from explosions, collisions, or faulty payload assembly.

Loading next visibility...
Identifier
28068, 1999-057MY
Orbit
SSO
Country
Flag of CNCN / PRC
Related business
Manufacturer
Unknown
Mission
Spacecraft
Bus & Motor
Unknown
Mass
Unknown
Launch date (UTC)
1999-10-14 (26 years ago)
Launch vehicle
Unknown
Launch site
Taiyaun Space Center, China (TSC)
Object type
Payload
Rocket body
Debris
Shape & HBR
Unknown shape, 0.1 m
Radar Cross Section
Small (<0.1 m²)

Expand to show TLE details & history
Last TLE update: 5 days ago

TLE from 5 days ago
0 CZ-4 DEB
1 28068U 99057MY  26032.11897182  .00001827  00000-0  43746-3 0  9999
2 28068  98.5129  95.6127 0077920 297.7984  61.5329 14.52988016664445
Epoch: 2026-02-01T02:51Z
TLE epoch observation values (Epoch: 2026-02-01T02:51:19.165Z)
Latitude
0.00007°
Longitude
-78.55036°
Altitude
692.854 km
Speed
7.524 km/s
True Right ascension
06h 22m 27s
True Declination
0° 00' 00"
Sunlit
Object was in full shadow at epoch
Visualization orbit readout
Latitude
Unknown
Longitude
Unknown
Altitude
Unknown
Speed
Unknown
Apparent Right ascension
Unknown
Apparent Declination
Unknown
Sunlit
N/A
Visualization observer readout
Local Sidereal Time
09:12:51
Azimuth
Unknown
Elevation
Unknown
Doppler factor
Unknown
Orbital elements
Apogee altitude
768.265 km
Perigee altitude
657.757 km
Semi-major axis
7,091.148 km
Eccentricity
0.00779
Inclination
98.5129°
RAAN
95.6127°
Arg. of periapsis
297.7984°
True anomaly
62.32147°
Mean anomaly
61.5329°
Eccentric anomaly
61.92682°
Mean motion
3.6347 °/min
Orbital period
99.05 mins
BSTAR
0.00043746
Loading maneuver chart data...
Computing Atmospheric mass density...
Loading historical data...
Loading historical data...
Loading historical data...
Loading historical data...
Loading historical data...
Loading historical data...
Loading historical data...

Documentation

Showing up to 5 results
|